TimePST,TemperatureF,Dew PointF,Humidity,Sea Level PressureIn,VisibilityMPH,Wind Direction,Wind SpeedMPH,Gust SpeedMPH,PrecipitationIn,Events,Conditions,WindDirDegrees,DateUTC
12:27 AM,42.8,39.2,87,30.04,10.0,SE,9.2,-,N/A,,Mostly Cloudy,140,2012-12-11 08:27:00
12:34 AM,42.8,39.2,87,30.03,10.0,SSE,8.1,-,N/A,,Mostly Cloudy,150,2012-12-11 08:34:00
12:53 AM,43.0,39.9,89,30.01,10.0,South,5.8,-,N/A,,Overcast,170,2012-12-11 08:53:00
1:53 AM,43.0,39.0,86,29.98,10.0,SE,6.9,-,N/A,,Mostly Cloudy,130,2012-12-11 09:53:00
2:32 AM,42.8,39.2,87,29.95,10.0,East,6.9,-,N/A,,Scattered Clouds,90,2012-12-11 10:32:00
2:53 AM,43.0,39.9,89,29.94,10.0,East,3.5,-,N/A,,Partly Cloudy,90,2012-12-11 10:53:00
3:53 AM,43.0,39.0,86,29.90,10.0,East,8.1,-,N/A,,Partly Cloudy,100,2012-12-11 11:53:00
4:53 AM,43.0,39.0,86,29.85,10.0,ESE,10.4,-,N/A,,Scattered Clouds,120,2012-12-11 12:53:00
5:53 AM,44.1,39.9,85,29.80,10.0,ESE,9.2,-,N/A,,Mostly Cloudy,120,2012-12-11 13:53:00
6:20 AM,42.8,39.2,87,29.77,10.0,SE,9.2,-,N/A,,Overcast,130,2012-12-11 14:20:00
6:53 AM,43.0,39.0,86,29.78,10.0,ESE,9.2,-,N/A,,Overcast,120,2012-12-11 14:53:00
7:22 AM,42.8,39.2,87,29.76,10.0,SE,11.5,-,N/A,,Overcast,130,2012-12-11 15:22:00
7:44 AM,44.6,39.2,81,29.75,10.0,ESE,12.7,-,N/A,,Overcast,110,2012-12-11 15:44:00
7:53 AM,44.1,39.9,85,29.74,10.0,ESE,11.5,-,N/A,,Overcast,110,2012-12-11 15:53:00
8:53 AM,44.1,39.9,85,29.70,10.0,ESE,12.7,-,N/A,,Overcast,110,2012-12-11 16:53:00
9:53 AM,44.1,41.0,89,29.68,10.0,ESE,12.7,-,N/A,,Overcast,110,2012-12-11 17:53:00
10:53 AM,45.0,39.9,82,29.64,10.0,SE,16.1,21.9,N/A,,Overcast,130,2012-12-11 18:53:00
11:53 AM,45.0,41.0,86,29.61,8.0,SE,12.7,21.9,0.00,Rain,Light Rain,130,2012-12-11 19:53:00
12:53 PM,45.0,41.0,86,29.58,9.0,SE,10.4,-,0.01,Rain,Light Rain,130,2012-12-11 20:53:00
1:22 PM,44.6,42.8,93,29.57,8.0,ESE,11.5,-,0.01,Rain,Light Rain,120,2012-12-11 21:22:00
1:53 PM,45.0,42.1,90,29.55,9.0,ESE,9.2,-,0.01,Rain,Light Rain,110,2012-12-11 21:53:00
2:20 PM,46.4,42.8,87,29.54,10.0,ESE,9.2,-,0.00,,Overcast,120,2012-12-11 22:20:00
2:53 PM,46.0,42.1,86,29.54,10.0,SE,6.9,-,0.00,,Overcast,130,2012-12-11 22:53:00
3:06 PM,44.6,42.8,93,29.54,10.0,ESE,6.9,-,0.00,,Overcast,120,2012-12-11 23:06:00
3:53 PM,44.1,41.0,89,29.54,10.0,Calm,Calm,-,0.00,,Overcast,0,2012-12-11 23:53:00
4:53 PM,43.0,41.0,93,29.55,10.0,Calm,Calm,-,N/A,,Overcast,0,2012-12-12 00:53:00
5:53 PM,44.1,41.0,89,29.55,10.0,Calm,Calm,-,N/A,,Overcast,0,2012-12-12 01:53:00
6:53 PM,45.0,42.1,90,29.55,10.0,SSE,3.5,-,N/A,,Overcast,160,2012-12-12 02:53:00
7:31 PM,44.6,42.8,93,29.55,4.0,South,4.6,-,0.00,Rain,Light Rain,180,2012-12-12 03:31:00
7:53 PM,44.1,43.0,96,29.56,8.0,Calm,Calm,-,0.00,,Overcast,0,2012-12-12 03:53:00
8:29 PM,42.8,42.8,100,29.56,10.0,Calm,Calm,-,N/A,,Overcast,0,2012-12-12 04:29:00
8:53 PM,42.1,41.0,96,29.57,10.0,Calm,Calm,-,N/A,,Overcast,0,2012-12-12 04:53:00
9:53 PM,43.0,42.1,97,29.58,9.0,Calm,Calm,-,N/A,,Overcast,0,2012-12-12 05:53:00
10:26 PM,42.8,42.8,100,29.58,10.0,Calm,Calm,-,N/A,,Overcast,0,2012-12-12 06:26:00
10:53 PM,43.0,42.1,97,29.59,10.0,Calm,Calm,-,N/A,,Overcast,0,2012-12-12 06:53:00
11:27 PM,42.8,42.8,100,29.60,10.0,Calm,Calm,-,N/A,,Overcast,0,2012-12-12 07:27:00
11:53 PM,43.0,42.1,97,29.60,10.0,Calm,Calm,-,N/A,,Overcast,0,2012-12-12 07:53:00